STARLINK-2666 (48666 NORAD) Tracking and Keplerian Element Data

This shows tracking and keplerian element data for the satellite.

Feedback or suggestion? Click here.




ElementValue
Catalog48666
NameSTARLINK-2666
Epoch Orbit364
Epoch Day210.91668981
Epoch Year2021
RAAN110.7485
Inclination53.0458
Eccentricity0.0001519
Argument of Perigee48.3891
Mean Anonmoly21.5439
Mean Motion15.200281
Decay Rate-0.0093343
L11 48666U 21044AE 21210.91668981 -.00933430 00000-0 -46204-1 0 9996
L22 48666 53.0458 110.7485 0001519 48.3891 21.5439 15.20028100 3648

Live tracking and technical data element details for STARLINK-2666 (NORAD 48666). STARLINK-2666 can be tracked NOW for your location showing map with azimuth and elevation plus other details from your city location.

Track the satellite on the map from your city or location and see movement details for azimuth, elevation, latitude, longitude, range, height, and movement on the map or in text.







IsCatalogInMostPopularTable: catalog: 48666, numindb: 20
Update: records affected: 1



GetName: 48666 STARLINK-2666

Hit Count: updated at: Sat, 31 Jul 2021 15:50:26 GMT